Location: Newark
(37.8333°N, 119.5000°W)
Time: 01:23:01
(UTC+00:00)

Tiros 1 despin weight - Pass Details

Date: 27 August 2019
Orbit: 594 x 643 km, 48.2° (Epoch: 17 October)

Event Time Altitude Azimuth Distance (km) Brightness Sun altitude
Exits shadow 09:55:33 17° 67° (ENE) 1,584 ? -34.9°
Drops below altitude 10° 09:56:49 10° 78° (ENE) 1,981 ? -34.8°
Sets 09:59:24 0° 89° (E) 2,895 ? -34.5°
